Home > Weather > Betul > Past weeks

Flag for India Past Weather in Betul, Madhya Pradesh, India — Yesterday and Last 2 Weeks

Now
81 °F

Mostly cloudy.


Feels Like: 87 °F
Forecast: 74 / 83 °F
Wind: No wind

Location: Nagpur Sonegaon

Current Time: Aug 27, 2016 at 7:03:58 AM

Latest Report: Aug 27, 2016 at 6:00 AM


Visibility: 1 mi

Pressure: 29.71 "Hg (27.55 "Hg at 663m altitude)

Humidity: 89%

Dew Point: 77 °F

Location of BetulLocation

Past Weather in Betul — Graph

°F

Betul Temperature Yesterday

Maximum temperature yesterday: 91 °F (at 2:00 PM)
Minimum temperature yesterday: 79 °F (at 1:30 AM)
Average temperature yesterday: 83 °F

High & Low Weather Summary for the Past Weeks

 TemperatureHumidityPressure
High95 °F (Aug 25, 4:30 PM)94% (Aug 24, 6:30 AM)29.77 "Hg (Aug 24, 6:30 AM)
Low75 °F (Aug 17, 4:30 AM)33% (Aug 17, 12:30 PM)29.53 "Hg (Aug 16, 4:30 PM)
Average83 °F73%29.67 "Hg
* Reported Aug 12 6:00 AM — Aug 27 5:30 AM, Betul, Weather by CustomWeather, © 2016

Note: Actual official high and low records may vary slightly from our data, if they occured in-between our weather recording intervals... More about our weather records

Advertising

Betul Weather History for the Previous 24 Hours

Scroll right to see more
 ConditionsComfort  
Time TempWeatherWind HumidityBarometerVisibility
5:30 AM
Sat, Aug 27
79 °FLight rain. Mostly cloudy.No wind94%29.71 "Hg1 mi
4:30 AM79 °FLight rain. Mostly cloudy.No wind94%29.68 "Hg2 mi
3:30 AM81 °FLight rain. Mostly cloudy.No wind89%29.71 "Hg1 mi
3:00 AM81 °FLight rain. Mostly cloudy.No wind89%29.71 "Hg1 mi
2:00 AM81 °FMostly cloudy.No wind89%29.71 "Hg2 mi
1:30 AM81 °FMostly cloudy.No wind89%29.71 "Hg2 mi
1:00 AM81 °FMostly cloudy.No wind89%29.71 "Hg2 mi
11:30 PM
Fri, Aug 26
81 °FLight rain. Mostly cloudy.No wind89%29.74 "Hg2 mi
10:30 PM82 °FLight rain. Mostly cloudy.2 mph84%29.74 "Hg2 mi
9:30 PM84 °FPartly cloudy.No wind79%29.71 "Hg2 mi
9:00 PM84 °FPartly cloudy.No wind79%29.71 "Hg2 mi
7:30 PM84 °FPassing clouds.No wind74%29.68 "Hg2 mi
7:00 PM84 °FScattered clouds.2 mph79%29.68 "Hg3 mi
6:30 PM84 °FScattered clouds.5 mph74%29.65 "Hg3 mi
5:30 PM84 °FScattered clouds.2 mph74%29.65 "Hg3 mi
3:30 PM91 °FScattered clouds.6 mph56%29.65 "Hg3 mi
2:30 PM91 °FScattered clouds.6 mph56%29.65 "Hg3 mi
2:00 PM91 °FScattered clouds.5 mph59%29.68 "Hg3 mi
1:00 PM90 °FScattered clouds.7 mph63%29.71 "Hg3 mi
12:30 PM88 °FScattered clouds.7 mph66%29.74 "Hg3 mi
12:00 PM88 °FPartly sunny.7 mph66%29.74 "Hg2 mi
11:30 AM86 °FBroken clouds.7 mph70%29.77 "Hg2 mi
11:00 AM84 °FBroken clouds.7 mph74%29.77 "Hg2 mi
10:30 AM84 °FBroken clouds.7 mph74%29.77 "Hg2 mi
10:00 AM82 °FBroken clouds.5 mph79%29.77 "Hg2 mi
9:30 AM82 °FBroken clouds.7 mph79%29.77 "Hg2 mi
9:00 AM82 °FBroken clouds.7 mph79%29.77 "Hg1 mi
8:30 AM82 °FBroken clouds.5 mph74%29.77 "Hg1 mi
8:00 AM81 °FBroken clouds.5 mph79%29.77 "Hg1 mi
7:30 AM81 °FBroken clouds.6 mph84%29.74 "Hg1 mi
Weather by CustomWeather, © 2016

See weather overviewHow to use our weather pages